EW5040 Weather Reports


Display with metric or nautical units.
time (UTC)temp
F
wind
direction
speed
MPH
gust
MPH
rain 1hr
in
rain 24hr
in
rain mn
in
humidity
%
barometer
mb
20260831094553 66 182 0.0 2.0 0.00 0.44 0.09 97 1017.3
20260831093040 66 182 0.0 1.0 0.00 0.44 0.09 97 1017.2
20260831091546 66 182 0.0 1.0 0.00 0.44 0.09 97 1017.2
20260831090040 66 182 0.0 1.0 0.00 0.44 0.09 97 1017.3
20260831084536 66 182 0.0 1.0 0.00 0.44 0.09 97 1017.5
20260831083035 66 182 0.0 1.0 0.02 0.44 0.09 97 1017.5
20260831081635 66 182 0.0 2.0 0.02 0.44 0.09 97 1017.6
20260831080039 67 188 0.0 2.0 0.02 0.44 0.09 97 1017.6
20260831074530 67 135 0.0 4.0 0.03 0.44 0.09 97 1017.9
20260831073029 67 251 0.0 4.0 0.03 0.42 0.07 97 1018.2
20260831071537 67 290 0.0 5.0 0.03 0.42 0.07 97 1018.2
20260831070030 67 175 0.0 5.0 0.05 0.42 0.07 98 1018.2
20260831064526 66 218 0.0 2.0 0.05 0.41 0.06 97 1018.3
20260831063028 66 218 0.0 1.0 0.04 0.39 0.04 97 1018.3
20260831061529 66 218 0.0 1.0 0.04 0.39 0.04 97 1018.4
20260831060021 66 218 0.0 1.0 0.02 0.37 0.02 97 1018.6
20260831054521 67 218 0.0 2.0 0.01 0.36 0.01 97 1018.7
20260831053028 67 218 0.0 2.0 0.00 0.35 0.00 97 1018.6
20260831051519 67 218 0.0 1.0 0.00 0.35 0.00 97 1018.5
20260831050026 67 218 0.0 0.0 0.00 0.35 0.00 97 1018.5
20260831044518 67 218 0.0 0.0 0.00 0.35 0.00 97 1018.5
20260831043016 67 218 0.0 0.0 0.00 0.35 0.00 97 1018.6
20260831041515 67 218 0.0 0.0 0.01 0.35 0.00 97 1018.5
20260831040013 67 218 0.0 0.0 0.04 0.35 0.00 97 1018.5
20260831034514 67 218 0.0 1.0 0.08 0.35 0.35 97 1018.6
20260831033012 67 218 0.0 5.0 0.10 0.35 0.35 97 1018.7
20260831031611 67 197 1.0 5.0 0.10 0.34 0.34 97 1018.7
20260831030012 67 5 0.0 1.0 0.09 0.30 0.30 97 1018.9
20260831024512 67 5 0.0 2.0 0.12 0.27 0.27 97 1019.0
20260831023009 67 5 1.0 3.0 0.15 0.25 0.25 97 1018.8
20260831021518 66 5 0.0 2.0 0.14 0.24 0.24 96 1018.9
20260831020015 66 5 0.0 2.0 0.11 0.21 0.21 96 1019.1
20260831014517 66 5 0.0 2.0 0.05 0.15 0.15 96 1019.1
20260831013005 65 5 0.0 2.0 0.01 0.10 0.10 95 1019.1
20260831011506 66 5 0.0 1.0 0.02 0.10 0.10 95 1019.0
20260831010004 66 5 0.0 1.0 0.02 0.10 0.10 95 1018.9
20260831004504 66 5 0.0 1.0 0.03 0.10 0.10 95 1018.7
20260831003006 66 5 0.0 2.0 0.02 0.09 0.09 95 1018.6
20260831001502 66 5 0.0 2.0 0.01 0.08 0.08 94 1018.5
20260831000002 66 5 0.0 1.0 0.02 0.08 0.08 94 1018.4
20260830234501 66 5 0.0 1.0 0.01 0.07 0.07 94 1018.3
20260830233001 67 5 0.0 1.0 0.01 0.07 0.07 93 1018.3
20260830231603 67 5 0.0 1.0 0.02 0.07 0.07 93 1018.2
20260830230100 67 5 0.0 1.0 0.02 0.06 0.06 92 1018.2
20260830224559 67 5 0.0 1.0 0.03 0.06 0.06 92 1018.4
20260830223111 68 5 0.0 0.0 0.04 0.06 0.06 92 1018.4
20260830221558 68 5 0.0 1.0 0.03 0.05 0.05 91 1018.3
20260830220059 68 5 0.0 0.0 0.02 0.04 0.04 91 1018.3
20260830214616 68 5 0.0 0.0 0.01 0.03 0.03 90 1018.4
20260830213056 68 5 0.0 1.0 0.00 0.02 0.02 89 1018.4
20260830211559 68 5 0.0 0.0 0.00 0.02 0.02 89 1018.3
20260830210116 68 5 0.0 1.0 0.00 0.02 0.02 89 1018.3
20260830204600 68 5 0.0 2.0 0.00 0.02 0.02 88 1018.5
20260830203058 68 5 1.0 2.0 0.00 0.02 0.02 87 1018.6
20260830201555 68 5 0.0 2.0 0.00 0.02 0.02 88 1018.5
20260830200053 68 5 0.0 2.0 0.00 0.02 0.02 89 1018.8
20260830194553 68 5 0.0 2.0 0.00 0.02 0.02 88 1018.7
20260830193052 69 5 0.0 3.0 0.00 0.02 0.02 88 1018.9
20260830191553 69 302 0.0 4.0 0.00 0.02 0.02 88 1019.0
20260830190123 69 332 2.0 4.0 0.00 0.02 0.02 88 1018.9
20260830184606 69 330 0.0 3.0 0.00 0.02 0.02 89 1018.8
20260830183100 69 290 1.0 3.0 0.00 0.02 0.02 90 1019.1
20260830181550 69 328 0.0 4.0 0.00 0.02 0.02 91 1019.2
20260830180049 69 311 0.0 1.0 0.00 0.02 0.02 91 1019.4
20260830174603 69 311 0.0 1.0 0.00 0.02 0.02 91 1019.3
20260830173048 69 311 0.0 0.0 0.00 0.02 0.02 90 1019.2
20260830171548 70 316 0.0 1.0 0.00 0.02 0.02 90 1019.1
20260830170047 69 316 0.0 1.0 0.00 0.02 0.02 90 1019.1
20260830164550 69 316 0.0 2.0 0.00 0.02 0.02 90 1019.0
20260830163045 69 316 0.0 2.0 0.00 0.02 0.02 91 1019.0
20260830161549 69 316 0.0 2.0 0.00 0.02 0.02 93 1018.9
20260830160044 68 316 0.0 1.0 0.01 0.02 0.02 93 1019.0
20260830154541 67 316 0.0 2.0 0.02 0.02 0.02 93 1019.3
20260830153037 67 316 0.0 4.0 0.02 0.02 0.02 93 1019.5
20260830151537 67 316 0.0 5.0 0.02 0.02 0.02 92 1019.6
20260830150036 68 338 0.0 4.0 0.01 0.01 0.01 90 1019.4
20260830144534 69 303 1.0 10.0 0.00 0.00 0.00 88 1019.4
20260830143034 69 259 0.0 2.0 0.00 0.00 0.00 90 1019.0
20260830141535 69 223 0.0 2.0 0.00 0.00 0.00 90 1018.7
20260830140032 69 223 0.0 1.0 0.00 0.00 0.00 92 1018.5
20260830134540 68 223 0.0 1.0 0.00 0.00 0.00 92 1018.5
20260830133030 67 223 0.0 0.0 0.00 0.00 0.00 93 1018.5
20260830131528 67 223 0.0 0.0 0.00 0.00 0.00 93 1018.5
20260830130037 67 223 0.0 3.0 0.00 0.00 0.00 92 1018.5
20260830124522 66 174 0.0 1.0 0.00 0.00 0.00 92 1018.2
20260830123021 66 175 0.0 1.0 0.00 0.00 0.00 92 1018.2
20260830121520 66 174 0.0 1.0 0.00 0.00 0.00 91 1018.4
20260830120025 66 174 0.0 0.0 0.00 0.00 0.00 91 1018.5
20260830114517 66 174 0.0 1.0 0.00 0.00 0.00 90 1018.4
20260830113016 66 174 0.0 2.0 0.00 0.00 0.00 89 1018.4
20260830111513 66 174 0.0 3.0 0.00 0.00 0.00 88 1018.3
20260830110013 66 123 0.0 1.0 0.00 0.00 0.00 89 1018.3
20260830104537 66 123 0.0 1.0 0.00 0.00 0.00 87 1018.4
20260830103015 67 123 0.0 1.0 0.00 0.00 0.00 87 1018.4
20260830101513 67 123 0.0 3.0 0.00 0.00 0.00 87 1018.4
20260830100008 67 123 1.0 4.0 0.00 0.00 0.00 86 1018.4